FW4012 Weather Reports


Display with metric or nautical units.
time (UTC)temp
F
wind
direction
speed
MPH
gust
MPH
rain 1hr
in
rain 24hr
in
rain mn
in
humidity
%
barometer
mb
20260506095743 56 116 10.0 21.0 0.00 7.80 0.68 93 1006.5
20260506095310 57 117 7.0 19.0 0.00 7.80 0.68 93 1006.5
20260506094747 56 134 12.0 19.0 0.00 7.80 0.68 94 1006.3
20260506094226 56 131 10.0 18.0 0.00 7.80 0.68 94 1006.3
20260506093743 56 147 8.0 15.0 0.00 7.80 0.68 94 1006.4
20260506093239 56 127 8.0 18.0 0.00 7.80 0.68 94 1006.4
20260506092738 56 113 8.0 18.0 0.00 7.80 0.68 94 1006.3
20260506092235 56 108 8.0 17.0 0.00 7.80 0.68 95 1006.4
20260506091754 56 87 11.0 17.0 0.00 7.80 0.68 95 1006.4
20260506091226 56 67 7.0 17.0 0.00 7.80 0.68 95 1006.3
20260506090728 55 128 8.0 18.0 0.00 7.80 0.68 95 1006.3
20260506090227 55 105 11.0 18.0 0.00 7.80 0.68 95 1006.3
20260506085726 56 109 6.0 14.0 0.00 7.83 0.68 95 1006.2
20260506085227 56 113 7.0 18.0 0.00 7.83 0.68 95 1006.2
20260506084726 56 142 10.0 17.0 0.00 7.83 0.68 95 1006.2
20260506084225 55 107 11.0 17.0 0.00 7.83 0.68 95 1006.2
20260506083733 55 85 7.0 19.0 0.00 7.83 0.68 95 1006.4
20260506083251 55 117 11.0 19.0 0.00 7.83 0.68 95 1006.3
20260506082731 55 71 6.0 17.0 0.00 7.83 0.68 96 1006.6
20260506082230 55 122 9.0 17.0 0.00 7.83 0.68 95 1006.6
20260506081729 55 146 9.0 19.0 0.04 7.83 0.68 96 1006.7
20260506081224 56 121 7.0 16.0 0.04 7.83 0.68 96 1006.6
20260506080724 56 137 9.0 17.0 0.04 7.83 0.68 96 1006.5
20260506080242 55 105 9.0 19.0 0.04 7.83 0.68 96 1006.5
20260506073236 55 125 8.0 19.0 0.08 7.99 0.68 96 1006.6
20260506072737 56 101 7.0 15.0 0.08 7.99 0.68 96 1006.7
20260506072233 56 109 8.0 15.0 0.08 7.99 0.68 96 1006.6
20260506071727 55 126 6.0 13.0 0.04 7.95 0.67 96 1006.6
20260506071224 55 112 6.0 17.0 0.08 7.95 0.67 96 1006.6
20260506070723 55 109 10.0 17.0 0.08 7.95 0.67 96 1006.7
20260506070243 55 148 8.0 16.0 0.08 7.95 0.67 96 1006.7
20260506062237 55 55 6.0 17.0 0.04 8.82 0.66 96 1007.0
20260506061735 55 121 9.0 17.0 0.04 8.82 0.66 96 1007.1
20260506061234 55 94 6.0 11.0 0.00 8.78 0.65 96 1007.0
20260506060751 55 101 4.0 12.0 0.04 8.78 0.65 96 1006.9
20260506060250 55 129 7.0 12.0 0.04 8.78 0.65 96 1007.0
20260506051251 54 130 4.0 13.0 0.08 9.13 0.65 96 1007.2
20260506050751 54 103 6.0 13.0 0.04 9.09 0.64 96 1007.2
20260506050252 54 170 6.0 13.0 0.04 9.09 0.64 96 1007.3
20260506044723 54 114 7.0 12.0 0.04 9.25 0.64 96 1007.4
20260506044223 54 115 6.0 12.0 0.04 9.21 0.63 96 1007.4
20260506043723 54 145 4.0 14.0 0.04 9.21 0.63 96 1007.5
20260506043239 54 114 9.0 14.0 0.08 9.21 0.63 96 1007.5
20260506042738 54 134 6.0 13.0 0.08 9.21 0.63 96 1007.6
20260506042238 54 134 8.0 15.0 0.08 9.21 0.63 96 1007.7
20260506041737 54 115 7.0 15.0 0.08 9.21 0.63 96 1007.7
20260506041237 54 121 8.0 12.0 0.12 9.21 0.63 96 1007.6
20260506040734 54 122 6.0 11.0 0.24 9.21 0.63 96 1007.6
20260506040233 55 117 7.0 10.0 0.79 9.21 0.63 96 1007.8
20260506035735 54 121 6.0 11.0 1.50 9.25 0.63 96 1007.7
20260506035224 54 113 7.0 12.0 1.61 9.25 0.63 96 1007.7
20260506034743 54 140 6.0 12.0 1.73 9.25 0.63 96 1007.6
20260506034241 54 117 7.0 13.0 1.93 9.21 0.62 96 1007.8
20260506033801 54 175 9.0 13.0 2.32 9.21 0.62 96 1007.8
20260506033238 55 141 4.0 10.0 2.28 9.17 0.61 96 1007.8
20260506032737 55 147 6.0 10.0 2.28 9.17 0.61 96 1007.8
20260506032306 54 109 6.0 13.0 2.28 9.17 0.61 96 1007.7
20260506031739 54 121 8.0 13.0 2.28 9.17 0.61 96 1007.9
20260506031237 54 94 5.0 10.0 2.24 9.13 0.60 96 1007.8
20260506030737 55 115 4.0 11.0 2.13 9.02 0.57 96 1007.9
20260506030236 55 144 5.0 11.0 1.50 8.39 0.41 96 1008.3
20260506025730 55 140 3.0 4.0 0.83 7.72 0.24 96 1008.3
20260506025230 55 257 2.0 3.0 0.71 7.60 0.21 96 1008.3
20260506024728 55 129 1.0 2.0 0.63 7.52 0.19 96 1008.4
20260506024246 55 129 1.0 2.0 0.35 7.24 0.12 96 1008.6
20260506023724 55 129 0.0 2.0 0.00 6.89 0.03 96 1008.6
20260506023224 55 130 0.0 2.0 0.00 6.89 0.03 96 1008.7
20260506022725 55 130 0.0 3.0 0.00 6.89 0.03 96 1008.7
20260506022226 55 130 1.0 3.0 0.00 6.89 0.03 96 1008.7
20260506021722 55 129 2.0 3.0 0.00 6.89 0.03 96 1008.8
20260506021241 55 130 1.0 2.0 0.00 6.89 0.03 96 1008.9
20260506020739 55 130 1.0 2.0 0.00 6.89 0.03 96 1008.9
20260506020239 54 119 0.0 2.0 0.00 6.89 0.03 96 1009.0
20260506015745 54 119 0.0 1.0 0.00 6.89 0.03 96 1009.0
20260506015246 54 119 0.0 3.0 0.00 6.89 0.03 96 1009.0
20260506014725 55 119 2.0 3.0 0.00 6.89 0.03 96 1008.9
20260506014225 55 119 2.0 3.0 0.00 6.89 0.03 96 1008.9
20260506013724 55 119 1.0 2.0 0.00 6.89 0.03 96 1009.0
20260506013300 55 119 0.0 2.0 0.04 6.89 0.03 96 1008.9
20260506012737 55 119 1.0 2.0 0.04 6.89 0.03 96 1008.9
20260506012235 55 120 1.0 2.0 0.04 6.89 0.03 96 1009.0
20260506011753 55 120 0.0 0.0 0.04 6.89 0.03 96 1009.1
20260506011227 55 120 0.0 0.0 0.04 6.89 0.03 96 1009.1
20260506010738 55 107 0.0 0.0 0.04 6.89 0.03 96 1009.1
20260506010225 55 107 0.0 0.0 0.04 6.89 0.03 96 1009.2
20260506005723 55 107 0.0 0.0 0.04 6.89 0.03 96 1009.3
20260506005248 55 107 0.0 0.0 0.04 6.89 0.03 96 1009.4
20260506004746 55 107 0.0 0.0 0.04 6.89 0.03 96 1009.4
20260506004244 55 107 0.0 0.0 0.04 6.89 0.03 96 1009.5
20260506003739 55 107 0.0 0.0 0.04 6.89 0.03 96 1009.5
20260506003236 55 107 0.0 0.0 0.00 6.85 0.02 96 1009.6
20260506002735 55 107 0.0 1.0 0.00 6.85 0.02 96 1009.7
20260506002235 55 107 0.0 2.0 0.00 6.85 0.02 96 1009.7
20260506001732 55 107 1.0 3.0 0.00 6.85 0.02 96 1009.7
20260506001230 55 107 2.0 3.0 0.00 6.85 0.02 96 1009.8
20260506000726 55 97 1.0 2.0 0.00 6.85 0.02 96 1009.7
20260506000227 55 97 1.0 4.0 0.00 6.85 0.02 95 1009.8
20260505235742 55 97 1.0 4.0 0.00 6.85 0.02 95 1009.8
20260505235301 55 126 2.0 3.0 0.00 6.85 0.02 95 1010.0
20260505234752 55 141 1.0 4.0 0.00 6.85 0.02 95 1010.0
20260505233731 55 111 2.0 3.0 0.00 6.85 0.02 95 1010.2
20260505233247 55 111 1.0 3.0 0.00 6.85 0.02 95 1010.2
20260505232751 55 111 1.0 3.0 0.00 6.85 0.02 95 1010.3
20260505232252 55 111 1.0 3.0 0.00 6.85 0.02 95 1010.1
20260505231730 55 110 1.0 3.0 0.08 6.85 0.02 95 1010.2
20260505231248 55 110 2.0 3.0 0.08 6.85 0.02 95 1010.2
20260505230747 55 201 1.0 3.0 0.08 6.85 0.02 95 1010.3
20260505230245 54 201 1.0 3.0 0.08 6.85 0.02 95 1010.4
20260505225740 54 201 0.0 1.0 0.08 6.85 0.02 95 1010.5
20260505225248 54 201 0.0 1.0 0.08 6.85 0.02 95 1010.4
20260505224726 54 201 0.0 1.0 0.08 6.85 0.02 95 1010.5
20260505224226 54 201 0.0 3.0 0.12 6.85 0.02 95 1010.5
20260505223741 54 201 1.0 3.0 0.16 6.85 0.02 95 1010.5
20260505223240 54 201 0.0 2.0 0.24 6.85 0.02 95 1010.5
20260505222738 54 201 1.0 2.0 0.51 6.85 0.02 95 1010.5
20260505222306 54 201 0.0 3.0 0.55 6.81 0.01 95 1010.6
20260505221727 54 201 1.0 4.0 0.59 6.77 0.00 95 1010.5
20260505221235 54 201 3.0 4.0 0.59 6.77 0.00 95 1010.5
20260505220734 54 174 2.0 5.0 0.59 6.77 0.00 95 1010.6
20260505220232 54 177 1.0 5.0 0.63 6.77 0.00 95 1010.6
20260505215731 54 126 2.0 5.0 0.67 6.77 1.72 95 1010.5
20260505215304 54 117 1.0 3.0 0.67 6.77 1.72 95 1010.7
20260505214737 54 115 0.0 1.0 0.63 6.73 1.71 95 1010.6
20260505214258 54 115 0.0 1.0 0.63 6.73 1.71 95 1010.8
20260505213734 54 115 0.0 2.0 0.55 6.65 1.69 95 1010.9
20260505213235 54 115 1.0 2.0 0.51 6.57 1.67 95 1010.9
20260505212735 54 115 1.0 3.0 0.28 6.34 1.61 95 1011.0
20260505212232 54 115 1.0 4.0 0.20 6.26 1.59 95 1011.1
20260505211733 54 115 1.0 4.0 0.12 6.18 1.57 95 1011.1
20260505211233 54 138 0.0 3.0 0.12 6.18 1.57 95 1011.1
20260505210734 54 138 1.0 6.0 0.12 6.18 1.57 95 1011.1
20260505210233 54 153 4.0 6.0 0.04 6.10 1.55 95 1011.2
20260505205734 54 133 3.0 4.0 0.04 6.10 1.55 95 1011.3
20260505205233 54 134 2.0 4.0 0.04 6.10 1.55 95 1011.3
20260505204734 54 135 3.0 4.0 0.04 6.10 1.55 95 1011.3
20260505204232 54 121 2.0 4.0 0.04 6.10 1.55 95 1011.4
20260505203757 54 125 2.0 4.0 0.04 6.10 1.55 95 1011.4
20260505203234 54 125 1.0 4.0 0.04 6.06 1.54 95 1011.4
20260505202734 54 125 3.0 7.0 0.12 6.06 1.54 95 1011.4
20260505202235 54 130 3.0 7.0 0.35 6.06 1.54 95 1011.5
20260505201734 54 154 2.0 6.0 0.59 6.06 1.54 95 1011.5
20260505201255 54 119 3.0 6.0 0.59 6.06 1.54 95 1011.4
20260505200732 54 146 3.0 4.0 0.71 6.06 1.54 95 1011.4
20260505200232 54 144 2.0 7.0 0.91 6.06 1.54 95 1011.4
20260505195728 54 124 3.0 7.0 0.98 6.06 1.54 95 1011.3
20260505195229 54 110 3.0 6.0 1.10 6.06 1.54 95 1011.2
20260505194756 54 130 2.0 4.0 1.18 6.06 1.54 95 1011.2
20260505194231 54 238 0.0 3.0 1.22 6.06 1.54 95 1011.1
20260505193750 54 243 1.0 2.0 1.26 6.06 1.54 94 1011.2
20260505193230 54 243 0.0 2.0 1.26 6.02 1.53 94 1011.1
20260505192750 54 243 0.0 2.0 1.18 5.94 1.51 94 1011.1
20260505192229 54 243 0.0 2.0 0.87 5.63 1.43 94 1011.2
20260505191757 54 243 1.0 2.0 0.79 5.47 1.39 94 1011.1
20260505191234 54 243 1.0 3.0 0.79 5.47 1.39 94 1011.1
20260505190732 54 243 1.0 3.0 0.71 5.31 1.35 94 1011.0
20260505190227 54 243 2.0 3.0 0.63 5.16 1.31 94 1011.0
20260505185743 54 243 2.0 3.0 0.63 5.08 1.29 94 1010.9
20260505185243 54 243 2.0 3.0 0.59 4.92 1.25 94 1010.8
20260505184743 54 235 1.0 3.0 0.67 4.88 1.24 94 1010.9
20260505184242 54 235 1.0 3.0 0.63 4.84 1.23 94 1010.7
20260505183740 54 207 1.0 3.0 0.63 4.80 1.22 94 1010.8
20260505183240 54 180 1.0 2.0 0.59 4.76 1.21 94 1010.8
20260505182741 54 157 1.0 3.0 0.63 4.76 1.21 94 1010.8
20260505182243 54 252 0.0 2.0 0.63 4.72 1.20 94 1010.7
20260505181814 54 261 1.0 2.0 0.67 4.69 1.19 94 1010.8
20260505181239 54 261 2.0 3.0 0.79 4.69 1.19 94 1010.8
20260505180737 54 261 1.0 3.0 0.75 4.61 1.17 94 1010.8
20260505180235 54 261 2.0 3.0 0.71 4.53 1.15 94 1010.8
20260505175735 54 261 1.0 3.0 0.63 4.45 1.13 94 1010.7
20260505175234 54 260 1.0 4.0 0.59 4.33 1.10 94 1010.8
20260505174734 54 260 2.0 4.0 0.55 4.21 1.07 94 1010.9
20260505174233 54 279 1.0 4.0 0.63 4.21 1.07 94 1010.9
20260505173728 54 275 1.0 4.0 0.71 4.17 1.06 94 1010.8
20260505173226 54 5 3.0 4.0 0.79 4.17 1.06 94 1010.9
20260505172734 54 332 2.0 3.0 0.83 4.13 1.05 94 1010.9
20260505172232 54 342 1.0 4.0 0.83 4.09 1.04 94 1010.9
20260505171747 54 339 3.0 4.0 0.75 4.02 1.02 94 1010.9
20260505171227 54 319 3.0 5.0 0.63 3.90 0.99 93 1010.8
20260505170729 54 333 3.0 6.0 0.59 3.86 0.98 93 1010.9
20260505170230 54 323 4.0 6.0 0.55 3.82 0.97 93 1010.9
20260505165729 54 347 3.0 6.0 0.63 3.82 0.97 93 1010.9
20260505165229 54 315 3.0 6.0 0.55 3.74 0.95 93 1010.8
20260505164729 54 321 3.0 6.0 0.51 3.66 0.93 93 1010.9
20260505164249 54 344 3.0 6.0 0.43 3.58 0.91 93 1010.9
20260505163724 54 339 2.0 5.0 0.31 3.46 0.88 93 1011.0
20260505163251 54 342 3.0 5.0 0.28 3.39 0.86 93 1011.1
20260505162750 54 306 2.0 5.0 0.20 3.31 0.84 93 1011.0
20260505162246 54 317 2.0 5.0 0.16 3.27 0.83 93 1011.0
20260505161748 54 324 3.0 5.0 0.16 3.27 0.83 93 1011.0
20260505161249 54 349 3.0 5.0 0.16 3.27 0.83 93 1011.0
20260505160750 54 326 3.0 5.0 0.16 3.27 0.83 93 1011.1
20260505160225 54 331 4.0 5.0 0.12 3.23 0.83 93 1011.0
20260505153239 54 11 4.0 8.0 0.20 3.11 0.79 93 1011.2
20260505152800 54 329 4.0 5.0 0.24 3.11 0.79 93 1011.3
20260505152300 54 331 3.0 8.0 0.24 3.11 0.79 93 1011.2
20260505151739 54 313 3.0 8.0 0.24 3.11 0.79 93 1011.3
20260505151239 54 295 3.0 5.0 0.24 3.11 0.79 93 1011.2
20260505150809 54 323 3.0 4.0 0.24 3.11 0.79 93 1011.3
20260505150248 54 294 3.0 4.0 0.24 3.11 0.79 93 1011.2
20260505140236 54 350 5.0 8.0 0.24 2.83 0.72 92 1011.5
20260505130227 55 333 3.0 4.0 0.12 2.60 0.66 91 1012.0
20260505124738 54 338 4.0 6.0 0.08 2.56 0.65 91 1012.0
20260505124239 55 360 3.0 4.0 0.08 2.56 0.65 91 1011.9
20260505123737 55 32 2.0 4.0 0.04 2.52 0.64 91 1012.0
20260505123238 55 16 2.0 6.0 0.08 2.52 0.64 91 1012.0
20260505122738 55 11 3.0 8.0 0.08 2.52 0.64 91 1011.9
20260505122239 55 335 5.0 8.0 0.12 2.52 0.64 91 1011.9
20260505121738 55 348 2.0 4.0 0.16 2.52 0.64 91 1012.0
20260505121232 55 32 1.0 3.0 0.16 2.48 0.63 91 1012.0
20260505120731 55 32 0.0 3.0 0.16 2.48 0.63 91 1011.8
20260505120227 55 32 2.0 3.0 0.20 2.48 0.63 91 1011.8
20260505115727 55 32 1.0 2.0 0.24 2.48 0.63 91 1011.9
20260505115255 55 355 0.0 2.0 0.28 2.48 0.63 91 1011.9
20260505114733 55 355 0.0 3.0 0.31 2.48 0.63 91 1011.9
20260505114231 55 5 1.0 5.0 0.31 2.48 0.63 91 1012.0
20260505113730 55 23 3.0 5.0 0.35 2.48 0.63 91 1012.0
20260505113250 55 346 2.0 4.0 0.31 2.44 0.62 91 1012.1
20260505112725 55 339 2.0 4.0 0.35 2.44 0.62 91 1012.1
20260505112226 55 321 0.0 2.0 0.31 2.40 0.61 91 1012.2
20260505111726 55 321 0.0 2.0 0.28 2.36 0.60 91 1012.1
20260505111227 55 321 1.0 2.0 0.24 2.32 0.59 91 1012.2
20260505110728 55 321 0.0 4.0 0.28 2.32 0.59 91 1012.2
20260505110247 55 321 2.0 4.0 0.24 2.24 0.57 91 1012.1
20260505101729 55 347 4.0 9.0 0.35 2.09 0.53 91 1012.1
20260505101231 55 339 5.0 9.0 0.39 2.09 0.53 91 1012.1
20260505100733 55 30 4.0 8.0 0.35 2.05 0.52 91 1012.1
20260505100231 55 329 4.0 9.0 0.31 2.01 0.51 91 1012.2